CSH9257 ZSPD-ZSAM

Flight info

Callsign CSH9257
Flight time N/A
Altitude 34100
Route NXD W131 AKDIM A470 ENVEN
Aircraft B738/M-SDE2E3FGHIRWXY/LB1

Departure

Time 2026-05-04 12:32
Airport Shanghai Pudong International Airport (ZSPD)

Arrival

Time N/A
Airport Xiamen Gaoqi International Airport (ZSAM)
Time Latitude Longitude Altitude Speed Heading
2026-05-04 11:58 31.13960 121.81260 21 ft 0 kts 252°
2026-05-04 12:16 31.13960 121.81261 21 ft 0 kts 252°
2026-05-04 12:16 31.13964 121.81275 21 ft 2 kts 252°
2026-05-04 12:16 31.13969 121.81292 21 ft 2 kts 252°
2026-05-04 12:17 31.13973 121.81308 21 ft 2 kts 252°
2026-05-04 12:17 31.13978 121.81325 21 ft 2 kts 252°
2026-05-04 12:17 31.13981 121.81342 21 ft 2 kts 279°
2026-05-04 12:17 31.13976 121.81359 21 ft 2 kts 302°
2026-05-04 12:18 31.13966 121.81372 21 ft 2 kts 327°
2026-05-04 12:18 31.13958 121.81377 21 ft 1 kts 342°
2026-05-04 12:18 31.13952 121.81378 21 ft 0 kts 342°
2026-05-04 12:20 31.13954 121.81378 21 ft 1 kts 342°
2026-05-04 12:21 31.14043 121.81342 21 ft 16 kts 341°
2026-05-04 12:21 31.14112 121.81316 21 ft 8 kts 342°
2026-05-04 12:21 31.14140 121.81305 21 ft 4 kts 342°
2026-05-04 12:21 31.14175 121.81291 21 ft 7 kts 342°
2026-05-04 12:22 31.14236 121.81269 21 ft 10 kts 342°
2026-05-04 12:22 31.14309 121.81241 21 ft 11 kts 342°
2026-05-04 12:22 31.14386 121.81212 21 ft 11 kts 342°
2026-05-04 12:22 31.14432 121.81158 21 ft 10 kts 269°
2026-05-04 12:23 31.14413 121.81076 21 ft 10 kts 252°
2026-05-04 12:23 31.14383 121.80969 21 ft 18 kts 252°
2026-05-04 12:23 31.14333 121.80791 21 ft 27 kts 251°
2026-05-04 12:23 31.14266 121.80549 21 ft 32 kts 252°
2026-05-04 12:24 31.14202 121.80319 21 ft 27 kts 252°
2026-05-04 12:24 31.14154 121.80148 21 ft 20 kts 252°
2026-05-04 12:24 31.14110 121.79990 21 ft 20 kts 252°
2026-05-04 12:24 31.14069 121.79846 21 ft 18 kts 253°
2026-05-04 12:25 31.14043 121.79730 21 ft 13 kts 262°
2026-05-04 12:25 31.14034 121.79639 21 ft 8 kts 280°
2026-05-04 12:25 31.14086 121.79591 21 ft 12 kts 339°
2026-05-04 12:25 31.14176 121.79556 21 ft 14 kts 342°
2026-05-04 12:26 31.14285 121.79514 21 ft 18 kts 342°
2026-05-04 12:26 31.14466 121.79446 21 ft 22 kts 342°
2026-05-04 12:26 31.14572 121.79407 21 ft 25 kts 342°
2026-05-04 12:26 31.14743 121.79342 21 ft 26 kts 342°
2026-05-04 12:27 31.14920 121.79275 21 ft 26 kts 342°
2026-05-04 12:27 31.15064 121.79220 21 ft 16 kts 342°
2026-05-04 12:27 31.15175 121.79179 21 ft 16 kts 343°
2026-05-04 12:27 31.15289 121.79136 21 ft 17 kts 342°
2026-05-04 12:28 31.15406 121.79091 21 ft 17 kts 342°
2026-05-04 12:28 31.15526 121.79046 21 ft 18 kts 342°
2026-05-04 12:28 31.15650 121.78999 21 ft 19 kts 342°
2026-05-04 12:28 31.15796 121.78944 21 ft 23 kts 342°
2026-05-04 12:29 31.15957 121.78884 21 ft 24 kts 343°
2026-05-04 12:29 31.16077 121.78838 21 ft 9 kts 342°
2026-05-04 12:29 31.16135 121.78807 21 ft 9 kts 314°
2026-05-04 12:29 31.16145 121.78732 21 ft 9 kts 258°
2026-05-04 12:30 31.16120 121.78655 21 ft 10 kts 243°
2026-05-04 12:30 31.16057 121.78625 21 ft 10 kts 168°
2026-05-04 12:30 31.16033 121.78634 21 ft 0 kts 161°
2026-05-04 12:30 31.16032 121.78634 21 ft 1 kts 161°
2026-05-04 12:31 31.15966 121.78659 21 ft 16 kts 163°
2026-05-04 12:31 31.15641 121.78784 21 ft 84 kts 160°
2026-05-04 12:31 31.14920 121.79057 21 ft 132 kts 162°
2026-05-04 12:31 31.13605 121.79519 334 ft 156 kts 162°
2026-05-04 12:32 31.12511 121.79856 766 ft 162 kts 163°
2026-05-04 12:32 31.10600 121.80534 1443 ft 178 kts 161°
2026-05-04 12:32 31.09408 121.80997 1988 ft 187 kts 160°
2026-05-04 12:33 31.08132 121.81487 2484 ft 202 kts 163°
2026-05-04 12:33 31.06230 121.82094 3126 ft 224 kts 166°
2026-05-04 12:33 31.05207 121.82416 3400 ft 238 kts 166°
2026-05-04 12:33 31.03573 121.82875 4075 ft 246 kts 173°
2026-05-04 12:34 31.01863 121.82838 4795 ft 249 kts 192°
2026-05-04 12:34 31.00233 121.82162 5516 ft 252 kts 212°
2026-05-04 12:34 30.98901 121.80869 5871 ft 252 kts 234°
2026-05-04 12:34 30.98084 121.79095 5919 ft 247 kts 253°
2026-05-04 12:35 30.97568 121.77185 5908 ft 245 kts 256°
2026-05-04 12:35 30.97074 121.75307 5906 ft 245 kts 255°
2026-05-04 12:35 30.96556 121.73406 5907 ft 245 kts 255°
2026-05-04 12:35 30.96217 121.71490 5911 ft 244 kts 270°
2026-05-04 12:36 30.96461 121.69489 6515 ft 248 kts 285°
2026-05-04 12:36 30.96882 121.67606 7447 ft 243 kts 287°
2026-05-04 12:36 30.97288 121.65684 8172 ft 247 kts 285°
2026-05-04 12:36 30.97662 121.63742 8869 ft 250 kts 285°
2026-05-04 12:37 30.98025 121.61774 9594 ft 252 kts 285°
2026-05-04 12:37 30.98393 121.59759 10280 ft 255 kts 285°
2026-05-04 12:37 30.98759 121.57764 11016 ft 256 kts 285°
2026-05-04 12:37 30.99132 121.55737 11736 ft 259 kts 284°
2026-05-04 12:38 30.99511 121.53685 12448 ft 261 kts 284°
2026-05-04 12:38 30.99886 121.51639 13146 ft 263 kts 284°
2026-05-04 12:38 31.00269 121.49551 13840 ft 265 kts 284°
2026-05-04 12:38 31.00652 121.47468 14546 ft 267 kts 283°
2026-05-04 12:39 31.01040 121.45352 15263 ft 268 kts 283°
2026-05-04 12:39 31.01427 121.43254 15972 ft 269 kts 283°
2026-05-04 12:39 31.01817 121.41136 16631 ft 271 kts 283°
2026-05-04 12:39 31.02217 121.38966 17307 ft 272 kts 283°
2026-05-04 12:40 31.02607 121.36842 17971 ft 273 kts 283°
2026-05-04 12:40 31.03005 121.34673 18584 ft 270 kts 282°
2026-05-04 12:40 31.03408 121.32556 19061 ft 271 kts 282°
2026-05-04 12:40 31.03955 121.29693 19589 ft 273 kts 282°
2026-05-04 12:41 31.04223 121.28258 19912 ft 272 kts 281°
2026-05-04 12:41 31.04620 121.26108 20354 ft 270 kts 281°
2026-05-04 12:41 31.05011 121.23968 20782 ft 270 kts 281°
2026-05-04 12:41 31.05395 121.21856 21201 ft 269 kts 280°
2026-05-04 12:42 31.05773 121.19733 21400 ft 270 kts 280°
2026-05-04 12:42 31.06147 121.17584 21888 ft 272 kts 279°
2026-05-04 12:42 31.06487 121.15480 22310 ft 262 kts 279°
2026-05-04 12:42 31.06786 121.13414 22349 ft 252 kts 275°
2026-05-04 12:43 31.06764 121.11421 22335 ft 244 kts 262°
2026-05-04 12:43 31.06368 121.09538 22330 ft 238 kts 257°
2026-05-04 12:43 31.05879 121.07722 22322 ft 231 kts 256°
2026-05-04 12:43 31.05409 121.05955 22315 ft 223 kts 257°
2026-05-04 12:44 31.04978 121.04263 22303 ft 216 kts 257°
2026-05-04 12:44 31.04560 121.02592 22283 ft 210 kts 257°
2026-05-04 12:44 31.04165 121.00992 22274 ft 203 kts 258°
2026-05-04 12:44 31.03782 120.99443 22252 ft 196 kts 258°
2026-05-04 12:45 31.03406 120.97934 22238 ft 190 kts 258°
2026-05-04 12:45 31.02931 120.96013 22219 ft 181 kts 258°
2026-05-04 12:45 31.02587 120.94626 22200 ft 174 kts 258°
2026-05-04 12:45 31.02368 120.93744 22192 ft 170 kts 258°
2026-05-04 12:46 31.02046 120.92449 22172 ft 162 kts 258°
2026-05-04 12:46 31.01738 120.91200 22159 ft 161 kts 258°
2026-05-04 12:46 31.01420 120.89904 22293 ft 173 kts 258°
2026-05-04 12:46 31.01076 120.88516 22472 ft 185 kts 258°
2026-05-04 12:47 31.00712 120.87041 22667 ft 195 kts 258°
2026-05-04 12:47 31.00323 120.85477 22861 ft 206 kts 258°
2026-05-04 12:47 30.99916 120.83845 23083 ft 216 kts 257°
2026-05-04 12:47 30.99486 120.82122 23249 ft 228 kts 257°
2026-05-04 12:48 30.99032 120.80296 23434 ft 240 kts 257°
2026-05-04 12:48 30.98553 120.78373 23587 ft 254 kts 257°
2026-05-04 12:48 30.98049 120.76348 23756 ft 266 kts 257°
2026-05-04 12:48 30.97523 120.74248 24036 ft 274 kts 257°
2026-05-04 12:49 30.96995 120.72150 24546 ft 273 kts 256°
2026-05-04 12:49 30.96467 120.70052 25139 ft 269 kts 256°
2026-05-04 12:49 30.95940 120.67957 25573 ft 271 kts 256°
2026-05-04 12:49 30.95408 120.65834 25670 ft 281 kts 256°
2026-05-04 12:50 30.94851 120.63603 25668 ft 293 kts 256°
2026-05-04 12:50 30.94272 120.61291 25666 ft 303 kts 256°
2026-05-04 12:50 30.93673 120.58906 25661 ft 306 kts 256°
2026-05-04 12:50 30.93074 120.56526 25659 ft 304 kts 256°
2026-05-04 12:51 30.92487 120.54198 25666 ft 305 kts 256°
2026-05-04 12:51 30.91887 120.51820 25659 ft 304 kts 256°
2026-05-04 12:51 30.91291 120.49458 25662 ft 305 kts 256°
2026-05-04 12:51 30.90670 120.47063 25659 ft 316 kts 254°
2026-05-04 12:52 30.89830 120.44643 25662 ft 332 kts 246°
2026-05-04 12:52 30.88468 120.42368 25664 ft 352 kts 234°
2026-05-04 12:52 30.86613 120.40417 25663 ft 371 kts 225°
2026-05-04 12:52 30.84489 120.38580 25656 ft 385 kts 223°
2026-05-04 12:53 30.82286 120.36773 25660 ft 397 kts 222°
2026-05-04 12:53 30.80011 120.34936 25655 ft 397 kts 221°
2026-05-04 12:53 30.77729 120.33099 25656 ft 398 kts 221°
2026-05-04 12:53 30.75465 120.31269 25656 ft 396 kts 221°
2026-05-04 12:54 30.73212 120.29443 25661 ft 397 kts 221°
2026-05-04 12:54 30.70948 120.27596 25656 ft 398 kts 221°
2026-05-04 12:54 30.68680 120.25745 25657 ft 397 kts 222°
2026-05-04 12:54 30.66410 120.23888 25655 ft 396 kts 221°
2026-05-04 12:55 30.64157 120.22044 25656 ft 397 kts 221°
2026-05-04 12:55 30.61885 120.20185 25661 ft 396 kts 221°
2026-05-04 12:55 30.59638 120.18347 25663 ft 396 kts 221°
2026-05-04 12:55 30.56637 120.15892 25654 ft 396 kts 221°
2026-05-04 12:56 30.55144 120.14671 25658 ft 396 kts 221°
2026-05-04 12:56 30.52909 120.12844 25661 ft 397 kts 221°
2026-05-04 12:56 30.50649 120.10996 25666 ft 397 kts 221°
2026-05-04 12:56 30.48362 120.09122 25656 ft 409 kts 221°
2026-05-04 12:57 30.45981 120.07167 25655 ft 421 kts 221°
2026-05-04 12:57 30.43565 120.05196 25663 ft 433 kts 220°
2026-05-04 12:57 30.41002 120.03268 25660 ft 446 kts 218°
2026-05-04 12:57 30.38296 120.01406 25658 ft 452 kts 216°
2026-05-04 12:58 30.35582 119.99625 25657 ft 453 kts 215°
2026-05-04 12:58 30.32819 119.97844 25659 ft 452 kts 215°
2026-05-04 12:58 30.29143 119.95474 25662 ft 452 kts 216°
2026-05-04 12:58 30.27321 119.94293 25660 ft 450 kts 216°
2026-05-04 12:59 30.24604 119.92523 25668 ft 452 kts 216°
2026-05-04 12:59 30.21884 119.90739 25668 ft 452 kts 216°
2026-05-04 12:59 30.19148 119.88939 25668 ft 451 kts 216°
2026-05-04 12:59 30.16406 119.87130 25665 ft 451 kts 216°
2026-05-04 13:00 30.13701 119.85344 25673 ft 450 kts 216°
2026-05-04 13:00 30.10962 119.83531 25673 ft 451 kts 216°
2026-05-04 13:00 30.08263 119.81746 25667 ft 447 kts 216°
2026-05-04 13:00 30.05584 119.79976 25679 ft 443 kts 216°
2026-05-04 13:01 30.02905 119.78198 25680 ft 443 kts 216°
2026-05-04 13:01 30.00222 119.76400 25684 ft 443 kts 216°
2026-05-04 13:01 29.97581 119.74612 25685 ft 438 kts 217°
2026-05-04 13:01 29.95010 119.72851 25682 ft 430 kts 217°
2026-05-04 13:02 29.92428 119.71081 25678 ft 423 kts 217°
2026-05-04 13:02 29.89925 119.69392 25695 ft 417 kts 216°
2026-05-04 13:02 29.87312 119.67917 25702 ft 417 kts 210°
2026-05-04 13:02 29.84542 119.66868 25700 ft 419 kts 202°
2026-05-04 13:03 29.81675 119.66272 25699 ft 421 kts 196°
2026-05-04 13:03 29.78795 119.65954 25703 ft 412 kts 193°
2026-05-04 13:03 29.75915 119.65788 25712 ft 407 kts 192°
2026-05-04 13:03 29.73133 119.65665 25710 ft 402 kts 192°
2026-05-04 13:04 29.70282 119.65512 25718 ft 414 kts 192°
2026-05-04 13:04 29.67358 119.65325 25717 ft 426 kts 192°
2026-05-04 13:04 29.64363 119.65120 25714 ft 438 kts 192°
2026-05-04 13:04 29.61291 119.64915 25712 ft 450 kts 191°
2026-05-04 13:05 29.58125 119.64771 25706 ft 462 kts 190°
2026-05-04 13:05 29.54878 119.64678 25713 ft 470 kts 189°
2026-05-04 13:05 29.51592 119.64579 25702 ft 474 kts 190°
2026-05-04 13:05 29.48306 119.64434 25705 ft 471 kts 190°
2026-05-04 13:06 29.45029 119.64261 25704 ft 470 kts 191°
2026-05-04 13:06 29.41757 119.64069 25710 ft 470 kts 191°
2026-05-04 13:06 29.38495 119.63869 25695 ft 470 kts 191°
2026-05-04 13:06 29.35206 119.63665 25696 ft 471 kts 191°
2026-05-04 13:07 29.31937 119.63460 25693 ft 469 kts 191°
2026-05-04 13:07 29.27599 119.63191 25698 ft 470 kts 191°
2026-05-04 13:07 29.25405 119.63055 25690 ft 469 kts 191°
2026-05-04 13:07 29.22129 119.62852 25683 ft 469 kts 191°
2026-05-04 13:08 29.18857 119.62650 25690 ft 472 kts 191°
2026-05-04 13:08 29.14527 119.62382 25685 ft 470 kts 191°
2026-05-04 13:08 29.12327 119.62247 25680 ft 470 kts 191°
2026-05-04 13:08 29.09080 119.62049 25686 ft 469 kts 191°
2026-05-04 13:09 29.05780 119.61847 25689 ft 470 kts 191°
2026-05-04 13:09 29.02528 119.61644 25681 ft 470 kts 191°
2026-05-04 13:09 28.99253 119.61441 25680 ft 471 kts 191°
2026-05-04 13:09 28.95968 119.61236 25678 ft 469 kts 191°
2026-05-04 13:10 28.92753 119.61036 25702 ft 470 kts 191°
2026-05-04 13:10 28.89457 119.60831 25697 ft 467 kts 191°
2026-05-04 13:10 28.85223 119.60573 25701 ft 456 kts 191°
2026-05-04 13:10 28.83061 119.60441 25713 ft 462 kts 191°
2026-05-04 13:11 28.79844 119.60255 25720 ft 462 kts 190°
2026-05-04 13:11 28.76653 119.60105 25728 ft 458 kts 191°
2026-05-04 13:11 28.73462 119.59935 25745 ft 459 kts 191°
2026-05-04 13:11 28.70260 119.59720 25732 ft 468 kts 192°
2026-05-04 13:12 28.67006 119.59492 25739 ft 472 kts 192°
2026-05-04 13:12 28.63712 119.59263 25733 ft 470 kts 192°
2026-05-04 13:12 28.60431 119.59044 25742 ft 470 kts 192°
2026-05-04 13:12 28.57189 119.58831 25741 ft 473 kts 191°
2026-05-04 13:13 28.53925 119.58622 25734 ft 469 kts 191°
2026-05-04 13:13 28.50644 119.58417 25743 ft 469 kts 191°
2026-05-04 13:13 28.47355 119.58212 25726 ft 470 kts 191°
2026-05-04 13:13 28.44092 119.58009 25722 ft 472 kts 191°
2026-05-04 13:14 28.40813 119.57817 25745 ft 471 kts 191°
2026-05-04 13:14 28.37511 119.57631 25745 ft 475 kts 191°
2026-05-04 13:14 28.34224 119.57451 25745 ft 472 kts 191°
2026-05-04 13:14 28.30963 119.57277 25751 ft 472 kts 191°
2026-05-04 13:15 28.27657 119.57098 25746 ft 474 kts 191°
2026-05-04 13:15 28.24391 119.56921 25741 ft 471 kts 191°
2026-05-04 13:15 28.20030 119.56685 25758 ft 470 kts 191°
2026-05-04 13:15 28.17828 119.56564 25759 ft 472 kts 191°
2026-05-04 13:16 28.14537 119.56380 25770 ft 474 kts 191°
2026-05-04 13:16 28.11217 119.56195 25768 ft 472 kts 191°
2026-05-04 13:16 28.07948 119.56036 25774 ft 474 kts 191°
2026-05-04 13:16 28.04650 119.55939 25778 ft 475 kts 189°
2026-05-04 13:17 28.01324 119.55883 25771 ft 476 kts 189°
2026-05-04 13:17 27.98010 119.55849 25780 ft 476 kts 189°
2026-05-04 13:17 27.94702 119.55825 25788 ft 475 kts 189°
2026-05-04 13:17 27.91416 119.55799 25787 ft 476 kts 189°
2026-05-04 13:18 27.88096 119.55784 25791 ft 475 kts 189°
2026-05-04 13:18 27.84763 119.55776 25784 ft 476 kts 189°
2026-05-04 13:18 27.81466 119.55772 25785 ft 474 kts 189°
2026-05-04 13:18 27.78173 119.55768 25785 ft 474 kts 189°
2026-05-04 13:19 27.74826 119.55757 25783 ft 478 kts 189°
2026-05-04 13:19 27.71535 119.55743 25780 ft 476 kts 189°
2026-05-04 13:19 27.68214 119.55730 25781 ft 476 kts 189°
2026-05-04 13:19 27.63808 119.55709 25787 ft 474 kts 189°
2026-05-04 13:20 27.60507 119.55692 25790 ft 475 kts 189°
2026-05-04 13:20 27.58271 119.55681 25779 ft 473 kts 189°
2026-05-04 13:20 27.54989 119.55665 25791 ft 475 kts 189°
2026-05-04 13:20 27.51682 119.55643 25793 ft 477 kts 189°
2026-05-04 13:21 27.48380 119.55626 25795 ft 472 kts 189°
2026-05-04 13:21 27.45093 119.55610 25797 ft 473 kts 189°
2026-05-04 13:21 27.41787 119.55590 25794 ft 477 kts 189°
2026-05-04 13:21 27.38441 119.55579 25792 ft 475 kts 189°
2026-05-04 13:22 27.35124 119.55572 25786 ft 476 kts 189°
2026-05-04 13:22 27.31827 119.55569 25800 ft 475 kts 188°
2026-05-04 13:22 27.28512 119.55566 25791 ft 475 kts 189°
2026-05-04 13:22 27.25247 119.55565 25791 ft 473 kts 189°
2026-05-04 13:23 27.21956 119.55553 25796 ft 476 kts 189°
2026-05-04 13:23 27.18607 119.55534 25795 ft 474 kts 189°
2026-05-04 13:23 27.15331 119.55513 25794 ft 474 kts 189°
2026-05-04 13:23 27.12041 119.55491 25799 ft 471 kts 189°
2026-05-04 13:24 27.08752 119.55466 25799 ft 475 kts 189°
2026-05-04 13:24 27.05448 119.55441 25797 ft 474 kts 189°
2026-05-04 13:24 27.02130 119.55418 25796 ft 472 kts 189°
2026-05-04 13:25 26.95585 119.55376 25796 ft 472 kts 189°
2026-05-04 13:25 26.91181 119.55345 25799 ft 472 kts 189°
2026-05-04 13:25 26.88995 119.55330 25801 ft 472 kts 189°
2026-05-04 13:25 26.85692 119.55310 25799 ft 470 kts 189°
2026-05-04 13:26 26.82388 119.55286 25797 ft 473 kts 189°
2026-05-04 13:26 26.79132 119.55264 25798 ft 472 kts 189°
2026-05-04 13:26 26.74769 119.55238 25796 ft 468 kts 189°
2026-05-04 13:26 26.72565 119.55225 25797 ft 468 kts 189°
2026-05-04 13:27 26.69292 119.55205 25793 ft 468 kts 189°
2026-05-04 13:27 26.66044 119.55184 25797 ft 469 kts 189°
2026-05-04 13:27 26.62799 119.55163 25794 ft 468 kts 188°
2026-05-04 13:27 26.59501 119.55141 25794 ft 471 kts 189°
2026-05-04 13:28 26.56232 119.55118 25793 ft 470 kts 188°
2026-05-04 13:28 26.52987 119.55100 25795 ft 466 kts 189°
2026-05-04 13:28 26.49689 119.55077 25793 ft 470 kts 188°
2026-05-04 13:28 26.46432 119.55055 25790 ft 469 kts 188°
2026-05-04 13:29 26.43174 119.55036 25791 ft 466 kts 188°
2026-05-04 13:29 26.39936 119.55016 25790 ft 468 kts 188°
2026-05-04 13:29 26.36672 119.54993 25791 ft 467 kts 189°
2026-05-04 13:29 26.33445 119.54961 25789 ft 466 kts 188°
2026-05-04 13:30 26.30196 119.54925 25788 ft 465 kts 188°
2026-05-04 13:30 26.26925 119.54873 25787 ft 466 kts 189°
2026-05-04 13:30 26.23724 119.54672 25783 ft 459 kts 193°
2026-05-04 13:30 26.20559 119.54173 25784 ft 454 kts 198°
2026-05-04 13:31 26.17563 119.53416 25782 ft 437 kts 201°
2026-05-04 13:31 26.14642 119.52531 25784 ft 424 kts 203°
2026-05-04 13:31 26.11836 119.51614 25784 ft 413 kts 204°
2026-05-04 13:31 26.09138 119.50680 25780 ft 407 kts 205°
2026-05-04 13:32 26.05590 119.49408 25782 ft 395 kts 205°
2026-05-04 13:32 26.03841 119.48778 25783 ft 396 kts 205°
2026-05-04 13:32 26.00354 119.47529 25777 ft 397 kts 205°
2026-05-04 13:32 25.98586 119.46903 25777 ft 397 kts 204°
2026-05-04 13:33 25.95939 119.45977 25774 ft 397 kts 205°
2026-05-04 13:33 25.92414 119.44759 25780 ft 397 kts 205°
2026-05-04 13:33 25.90636 119.44149 25779 ft 397 kts 204°
2026-05-04 13:33 25.87110 119.42943 25780 ft 400 kts 204°
2026-05-04 13:34 25.85319 119.42332 25783 ft 400 kts 204°
2026-05-04 13:34 25.82666 119.41430 25782 ft 397 kts 204°
2026-05-04 13:34 25.80051 119.40543 25783 ft 397 kts 204°
2026-05-04 13:34 25.77386 119.39555 25780 ft 398 kts 207°
2026-05-04 13:35 25.74883 119.38283 25776 ft 391 kts 215°
2026-05-04 13:35 25.70684 119.34650 25780 ft 383 kts 227°
2026-05-04 13:35 25.70153 119.34068 25780 ft 383 kts 229°